SCP
0 0 0 0 0 0 0 0 0 0 0 0 0 0 0 0 0 0 0 0 0 0 0 0 0 0 0 0 0 0 0 0 0 0 0 0 0 0 0 0 0 0 0
0 0 0 0 0 0 0 0 0 0 0 0 0 0 0 0 0 0 0 0 0 0 0 0 0 0 0 0 0 0 0 0 0 0 0 0 0 0 0 0 0 0 0
0 0 0 0 0 0 0 0 0 0 0 0 0 0 0 0 0 0 0 0 0 0 0 0 0 0 0 0 0 0 0 0 0 0 0 0 0 0 0 0 0 0 0
0 0 0 0 0 0 0 0 0 0 0 0 0 0 0 0 0 0 0 0 0 0 0 0 0 0 0 0 0 0 0 0 0 0 0 0 0 0 0 0 0 0 0
0 0 0 0 0 -0 0 0 0 0 0 0 0 0 0 0 0 0 0 0 0 0 0 0 0 0 0 0 0 0 0 0 0 0 0 0 0 0 0 0 0 0 0
-0 -0 -0 0 -0 -0 0 0 -0 -0 -0 0 0 0 0 0 0 0 0 0 0 0 0 0 0 0 0 0 0 0 0 0 0 0 0 0 0 0 0 0 0 0 0
-0 -0 -0 -0 -0 -0 -0 -0 -0 0 0 -0 -0 -0 0 0 0 0 0 0 0 0 0 0 0 0 0 0 0 0 0 0 0 0 0 0 0 0 0 0 0 0 0
-0 -0 -0 -0 -0 -0 -0 -0 -0 -0 -0 -0 0 0 -0 0 0 0 0 0 0 0 0 0 0 0 0 0 0 0 0 0 0 0 0 0 0 0 0 0 0 0 0
-0 -0 -0 -0 -0 -0 -0 -0 -0 -0 -0 -0 -0 -0 0 0 0 0 0 0 0 0 0 0 0 0 0 0 0 0 0 0 0 0 0 0 0 0 0 0 0 0 0
-0 -0 -0 -0 -0 -0 -0 -0 -0 -0 -0 -0 -0 -0 0 0 0 0 0 0 0 0 0 0 0 0 0 0 0 0 0 0 0 0 0 0 0 0 0 0 0 0 0
-0 -0 -0 -0 -0 -0 -0 -0 -0 -0 -0 -0 -0 -0 -0 0 0 -0 0 0 0 0 0 0 0 0 0 0 0 0 0 0 0 0 0 0 0 0 0 0 0 0 0
-0 -0 -0 -0 -0 -0 -0 -0 -0 -0 -0 -0 -0 -0 -0 -0 0 0 0 0 0 0 0 0 0 0 0 0 0 0 0 0 0 0 0 0 0 0 0 0 0 0 0
-0 0 0 0 0 0 0 0 -0 -0 -0 -0 -0 -0 -0 -0 0 0 0 0 0 0 0 0 0 0 0 0 0 0 0 0 0 0 0 0 0 0 0 0 0 0 0
0 0 0 0 0 0 0 0 0 0 0 0 0 -0 -0 -0 -0 0 0 0 0 0 0 0 0 0 0 0 0 0 0 0 0 0 0 0 0 0 0 0 0 0 0
0 0 0 0 0 0 0 0 0 0 -0 0 0 0 0 0 0 0 0 0 0 0 0 0 0 0 0 0 0 0 0 0 0 0 0 0 0 0 0 0 0 0 0
0 0 0 0 0 0 0 0 -0 -0 0 0 0 0 0 0 0 0 0 0 0 0 0 0 0 0 0 0 0 0 0 0 0 0 0 0 0 0 0 0 0 0 0
0 0 0 0 0 0 0 0 0 0 -0 0 0 0 0 0 0 0 0 0 0 0 0 0 0 0 0 0 0 0 0 0 0 0 0 0 0 0 0 0 0 0 0
0 0 -0 0 -0 -0 -0 -0 -0 -0 -0 -0 0 0 0 0 0 0 0 0 0 0 0 0 0 0 0 0 0 0 0 0 0 0 0 0 0 0 0 0 0 0 0
0 0 -0 -0 -0 -0 -0 -0 -0 -0 -0 -0 -0 -0 0 0 0 0 0 0 0 0 0 0 0 0 0 0 0 0 0 0 0 0 0 0 0 0 0 0 0 0 0
0 -0 -0 -0 -0 -0 -0 -0 -0 -0 -0 -0 -0 -0 -0 -0 -0 0 0 0 0 0 0 0 0 0 0 0 0 0 0 0 0 0 0 0 0 0 0 0 0 0 0
0 0 0 0 0 -0 -0 -0 -0 -0 -0 -0 -0 -0 0 -0 -0 -0 -0 0 0 0 0 0 0 0 0 0 0 0 0 0 0 0 0 0 0 0 0 0 0 0 0
0 0 0 0 0 0 0 0 0 0 -0 -0 -0 0 0 -0 -0 -0 -0 0 0 0 0 0 0 0 0 0 0 0 0 0 0 0 0 0 0 0 0 0 0 0 0
0 0 0 0 0 0 0 0 0 0 0 0 0 0 0 0 0 0 0 0 0 0 0 0 0 0 0 0 0 0 0 0 0 0 0 0 0 0 0 0 0 0 0
0 0 0 0 0 0 0 0 0 0 0 0 0 0 0 0 0 0 0 0 0 0 0 0 0 0 0 0 0 0 0 0 0 0 0 0 0 0 0 0 0 0 0
0 0 0 0 0 0 0 0 0 0 0 0 0 0 0 0 0 0 0 0 0 0 0 0 0 0 0 0 0 0 0 0 0 0 0 0 0 0 0 0 0 0 0
0 0 0 0 0 0 0 0 0 0 0 0 0 0 0 0 0 0 0 0 0 0 0 0 0 0 0 0 0 0 0 0 0 0 0 0 0 0 0 0 0 0 0
Wind_Speed_500mb
36 33 30 29 33 35 36 38 41 47 55 60 64 72 76 76 77 79 82 83 86 83 86 90 93 91 93 92 92 94 97 96 98 92 86 80 73 73 61 64 60 54 54
40 42 43 42 39 40 43 45 45 46 45 49 57 67 70 75 78 82 85 87 91 90 90 89 92 90 94 92 93 92 95 96 97 91 83 83 81 62 70 66 67 57 61
43 45 47 50 52 51 50 51 52 55 54 53 53 56 63 68 72 77 82 86 90 95 91 93 96 92 97 93 93 94 94 93 89 97 92 81 79 74 77 65 68 66 60
47 50 52 55 58 61 61 59 57 57 59 58 58 62 61 65 69 73 77 82 88 93 95 95 95 98 98 100 93 95 92 94 93 93 93 95 91 84 74 67 69 62 58
57 58 60 61 62 64 66 67 68 67 64 62 64 61 62 65 70 72 75 79 83 90 94 97 95 94 92 91 104 95 90 89 94 98 98 95 92 87 83 76 71 57 63
67 68 67 69 68 69 72 73 75 77 76 74 71 70 68 65 64 66 71 78 82 88 91 91 95 90 87 95 85 94 85 82 89 88 94 96 88 90 83 72 69 62 66
80 81 85 87 85 84 82 81 81 83 83 83 83 80 78 76 71 67 66 74 82 89 95 92 91 91 95 82 82 86 83 85 81 90 91 84 87 79 68 72 70 67 71
79 84 88 92 96 98 94 89 87 87 87 87 88 87 90 86 78 74 71 74 80 86 88 95 95 96 95 89 84 86 84 86 84 95 98 87 76 69 70 72 67 67 66
89 92 93 94 97 100 103 104 101 98 97 97 94 94 94 93 86 81 78 76 81 82 85 88 92 95 93 86 84 90 88 87 83 85 80 86 76 72 71 69 70 67 67
91 97 100 104 106 107 104 101 100 100 106 103 103 97 98 101 94 85 78 82 83 85 84 87 86 92 93 88 82 89 90 91 83 87 78 85 81 82 72 74 72 80 73
89 92 94 96 100 103 107 107 106 103 102 105 108 108 104 100 101 96 83 79 79 82 87 90 89 79 82 87 87 87 90 86 78 79 80 81 79 78 76 79 74 73 72
90 94 96 97 96 97 99 99 99 100 102 103 104 108 104 100 94 90 87 79 76 76 83 88 89 83 73 82 86 92 92 89 78 81 88 81 85 82 79 74 70 71 70
85 88 91 93 92 92 96 97 98 95 95 100 101 100 102 86 86 83 77 75 71 72 78 77 79 83 75 80 83 83 86 89 85 84 89 91 90 84 77 72 68 76 75
75 79 83 85 87 88 88 88 87 89 90 87 89 91 98 95 85 74 76 76 81 82 83 82 75 72 77 79 85 84 87 90 89 89 91 92 89 86 82 77 75 84 78
69 76 82 85 89 92 88 87 83 77 72 81 88 91 93 101 100 89 84 86 82 79 81 83 85 77 73 82 88 90 89 91 89 90 92 95 94 92 90 87 87 85 83
66 73 77 84 87 88 91 94 82 66 66 63 64 69 83 89 98 83 77 78 77 74 78 84 85 83 80 76 83 96 91 92 91 93 94 97 100 98 99 96 92 89 89
64 71 76 78 80 84 88 91 99 95 82 74 68 66 67 75 74 80 88 77 67 65 75 83 87 81 77 80 79 90 96 97 95 96 101 103 101 98 103 103 100 95 93
57 62 67 70 72 74 76 80 85 92 99 98 84 78 79 73 68 69 65 64 69 69 74 76 82 84 81 81 83 85 90 95 98 102 104 104 103 105 106 107 105 103 101
54 57 61 64 66 68 71 74 78 82 85 90 94 90 92 91 80 66 54 52 54 54 62 69 73 79 84 85 85 84 89 97 101 103 105 106 108 109 109 110 108 107 102
52 55 59 62 65 67 70 73 77 79 82 83 86 88 94 94 94 89 81 75 69 63 60 55 55 69 80 84 83 83 87 93 97 99 100 102 102 104 102 103 102 104 97
54 55 58 62 64 66 67 68 67 69 72 75 77 77 73 80 86 87 85 83 81 76 68 60 53 44 60 76 77 77 79 85 91 92 90 93 94 92 91 89 90 86 84
52 55 57 60 62 63 63 62 64 67 70 72 74 75 75 78 79 82 82 81 80 77 72 63 53 43 36 34 48 66 72 78 83 86 88 90 91 95 93 84 83 78 77
49 52 54 55 57 59 61 62 63 65 68 70 73 76 77 77 78 79 79 78 76 75 73 68 61 50 38 32 31 35 46 61 72 79 84 87 86 86 82 80 74 75 72
48 51 54 55 57 59 60 63 65 67 68 69 70 73 74 75 75 74 73 73 71 69 66 65 63 57 50 39 28 22 25 34 45 58 67 74 76 69 65 63 66 69 65
49 51 53 57 60 62 63 64 66 67 69 70 71 71 71 72 73 73 73 72 69 68 65 63 59 57 53 44 36 31 22 10 15 27 37 45 53 54 61 65 61 61 59
49 52 54 55 57 59 61 64 65 66 67 69 70 71 71 72 72 73 75 73 72 69 65 62 58 55 49 45 41 34 25 15 5 6 15 24 33 41 48 54 56 56 56
Wind_Direction_500mb
21 14 357 342 338 337 331 324 313 301 291 283 285 287 287 285 285 282 279 278 275 275 274 273 273 272 270 269 266 265 263 263 261 268 270 272 268 276 263 267 254 254 255
13 8 6 1 354 344 339 335 328 318 310 302 292 282 281 285 285 283 281 281 280 277 275 273 272 271 270 269 266 266 266 264 262 263 272 273 266 262 275 254 245 258 249
5 357 353 352 351 350 346 339 334 328 322 312 303 298 291 282 279 278 278 278 277 278 279 276 274 271 268 268 268 266 265 264 264 267 264 259 267 268 264 249 247 247 252
358 353 350 347 343 340 338 335 333 329 324 321 313 307 304 298 286 277 275 277 278 280 280 278 276 274 272 269 264 267 264 261 263 261 259 263 262 260 247 250 243 243 252
348 345 342 338 335 333 330 327 326 324 321 319 316 313 309 301 299 294 284 276 274 275 274 275 278 277 277 275 263 266 263 263 260 261 262 260 259 255 249 252 243 247 252
339 337 334 330 329 327 324 323 321 318 317 316 313 311 308 306 307 299 293 284 274 274 274 273 275 277 275 273 275 268 269 264 266 262 259 256 264 260 260 259 237 256 232
337 334 332 330 328 326 323 320 318 315 313 312 311 310 307 306 308 307 301 288 279 270 268 270 275 275 275 273 273 269 269 265 266 268 267 259 260 262 260 253 248 244 243
333 330 328 325 324 324 324 322 318 314 311 309 306 306 305 306 305 304 302 298 286 277 270 268 267 269 270 273 274 272 266 264 262 258 264 262 261 262 256 261 258 243 234
331 327 326 324 323 322 320 320 320 318 314 311 308 304 302 301 303 302 300 296 293 287 277 268 265 267 270 269 270 267 267 264 261 255 258 256 254 251 253 251 231 228 226
326 326 325 325 323 321 320 319 316 315 312 311 307 305 303 300 298 299 299 297 294 293 289 278 270 264 265 266 266 264 262 259 258 256 254 255 259 250 247 241 243 235 233
327 325 324 322 320 319 318 317 316 316 312 311 308 306 305 303 302 299 298 295 294 291 288 287 281 271 265 267 264 261 261 260 257 257 260 250 248 245 250 241 236 233 239
331 331 329 327 326 322 319 318 317 317 314 312 310 306 305 306 303 301 300 300 299 293 287 283 280 276 265 263 264 262 260 258 254 250 245 248 236 245 241 237 239 232 231
335 333 333 332 333 331 328 325 324 325 322 319 317 314 310 307 305 303 300 301 300 297 291 287 282 274 267 263 260 260 259 255 251 246 240 241 241 244 238 237 229 223 222
346 346 346 344 342 340 337 336 333 333 331 327 321 316 314 311 306 303 302 303 302 301 297 291 284 277 268 262 264 260 255 253 252 249 244 242 239 232 231 232 224 220 219
354 353 353 352 353 351 349 347 340 338 328 319 313 312 310 309 306 303 301 301 299 297 298 295 290 281 275 268 261 258 253 250 245 243 240 238 235 229 225 218 220 217 216
357 357 357 356 355 354 352 349 352 342 330 326 319 313 309 307 306 304 301 297 292 290 289 283 278 278 277 272 268 262 252 248 246 243 241 240 238 230 221 217 217 216 218
356 354 353 354 353 354 354 354 349 353 356 354 345 334 327 311 309 301 292 295 295 290 284 278 271 269 267 270 266 257 258 256 251 246 242 241 237 232 224 218 217 216 213
353 350 349 350 351 353 353 354 354 354 353 355 358 353 343 335 326 316 307 296 301 300 296 288 272 267 267 265 264 261 256 256 253 248 242 240 236 231 223 219 218 216 215
355 351 348 347 350 351 352 354 354 355 355 355 356 357 356 353 347 342 333 322 322 317 308 304 286 275 272 268 266 264 259 255 255 250 244 239 233 227 221 219 218 214 211
359 358 354 352 350 350 351 353 352 353 354 357 0 2 357 355 1 1 359 355 346 336 327 310 300 289 281 276 269 265 258 250 245 244 242 236 227 222 216 212 208 204 206
354 355 353 352 352 353 353 353 350 350 352 355 358 1 356 3 5 6 5 4 2 357 348 338 325 298 282 280 272 265 259 249 244 239 231 226 220 211 208 203 203 204 198
352 353 352 350 348 349 351 351 352 353 354 354 353 356 360 4 5 4 5 5 5 5 5 357 346 336 319 283 263 267 266 255 245 238 231 226 218 214 210 208 204 197 194
350 351 350 349 348 347 348 350 351 353 353 354 355 356 357 358 359 -0 1 2 3 3 4 7 6 0 349 331 309 280 260 252 248 243 234 224 218 214 210 199 191 187 186
349 349 347 347 347 346 347 347 348 350 352 352 353 354 355 355 355 353 354 355 358 0 1 2 4 7 8 6 355 320 282 266 254 241 234 228 216 204 191 187 185 184 190
345 346 345 346 345 344 344 345 346 347 348 349 350 351 351 351 351 351 352 351 350 353 356 357 358 359 0 3 5 8 7 328 257 234 226 211 194 187 187 185 188 197 200
343 344 342 342 342 342 342 342 342 343 343 344 345 346 346 346 347 347 347 348 348 347 345 348 350 351 351 351 352 357 356 357 7 188 187 191 191 193 198 204 204 202 200
Wind_Speed_850mb
36 33 30 29 33 35 36 38 41 47 55 60 64 72 76 76 77 79 82 83 86 83 86 90 93 91 93 92 92 94 97 96 98 92 86 80 73 73 61 64 60 54 54
40 42 43 42 39 40 43 45 45 46 45 49 57 67 70 75 78 82 85 87 91 90 90 89 92 90 94 92 93 92 95 96 97 91 83 83 81 62 70 66 67 57 61
43 45 47 50 52 51 50 51 52 55 54 53 53 56 63 68 72 77 82 86 90 95 91 93 96 92 97 93 93 94 94 93 89 97 92 81 79 74 77 65 68 66 60
47 50 52 55 58 61 61 59 57 57 59 58 58 62 61 65 69 73 77 82 88 93 95 95 95 98 98 100 93 95 92 94 93 93 93 95 91 84 74 67 69 62 58
57 58 60 61 62 64 66 67 68 67 64 62 64 61 62 65 70 72 75 79 83 90 94 97 95 94 92 91 104 95 90 89 94 98 98 95 92 87 83 76 71 57 63
67 68 67 69 68 69 72 73 75 77 76 74 71 70 68 65 64 66 71 78 82 88 91 91 95 90 87 95 85 94 85 82 89 88 94 96 88 90 83 72 69 62 66
80 81 85 87 85 84 82 81 81 83 83 83 83 80 78 76 71 67 66 74 82 89 95 92 91 91 95 82 82 86 83 85 81 90 91 84 87 79 68 72 70 67 71
79 84 88 92 96 98 94 89 87 87 87 87 88 87 90 86 78 74 71 74 80 86 88 95 95 96 95 89 84 86 84 86 84 95 98 87 76 69 70 72 67 67 66
89 92 93 94 97 100 103 104 101 98 97 97 94 94 94 93 86 81 78 76 81 82 85 88 92 95 93 86 84 90 88 87 83 85 80 86 76 72 71 69 70 67 67
91 97 100 104 106 107 104 101 100 100 106 103 103 97 98 101 94 85 78 82 83 85 84 87 86 92 93 88 82 89 90 91 83 87 78 85 81 82 72 74 72 80 73
89 92 94 96 100 103 107 107 106 103 102 105 108 108 104 100 101 96 83 79 79 82 87 90 89 79 82 87 87 87 90 86 78 79 80 81 79 78 76 79 74 73 72
90 94 96 97 96 97 99 99 99 100 102 103 104 108 104 100 94 90 87 79 76 76 83 88 89 83 73 82 86 92 92 89 78 81 88 81 85 82 79 74 70 71 70
85 88 91 93 92 92 96 97 98 95 95 100 101 100 102 86 86 83 77 75 71 72 78 77 79 83 75 80 83 83 86 89 85 84 89 91 90 84 77 72 68 76 75
75 79 83 85 87 88 88 88 87 89 90 87 89 91 98 95 85 74 76 76 81 82 83 82 75 72 77 79 85 84 87 90 89 89 91 92 89 86 82 77 75 84 78
69 76 82 85 89 92 88 87 83 77 72 81 88 91 93 101 100 89 84 86 82 79 81 83 85 77 73 82 88 90 89 91 89 90 92 95 94 92 90 87 87 85 83
66 73 77 84 87 88 91 94 82 66 66 63 64 69 83 89 98 83 77 78 77 74 78 84 85 83 80 76 83 96 91 92 91 93 94 97 100 98 99 96 92 89 89
64 71 76 78 80 84 88 91 99 95 82 74 68 66 67 75 74 80 88 77 67 65 75 83 87 81 77 80 79 90 96 97 95 96 101 103 101 98 103 103 100 95 93
57 62 67 70 72 74 76 80 85 92 99 98 84 78 79 73 68 69 65 64 69 69 74 76 82 84 81 81 83 85 90 95 98 102 104 104 103 105 106 107 105 103 101
54 57 61 64 66 68 71 74 78 82 85 90 94 90 92 91 80 66 54 52 54 54 62 69 73 79 84 85 85 84 89 97 101 103 105 106 108 109 109 110 108 107 102
52 55 59 62 65 67 70 73 77 79 82 83 86 88 94 94 94 89 81 75 69 63 60 55 55 69 80 84 83 83 87 93 97 99 100 102 102 104 102 103 102 104 97
54 55 58 62 64 66 67 68 67 69 72 75 77 77 73 80 86 87 85 83 81 76 68 60 53 44 60 76 77 77 79 85 91 92 90 93 94 92 91 89 90 86 84
52 55 57 60 62 63 63 62 64 67 70 72 74 75 75 78 79 82 82 81 80 77 72 63 53 43 36 34 48 66 72 78 83 86 88 90 91 95 93 84 83 78 77
49 52 54 55 57 59 61 62 63 65 68 70 73 76 77 77 78 79 79 78 76 75 73 68 61 50 38 32 31 35 46 61 72 79 84 87 86 86 82 80 74 75 72
48 51 54 55 57 59 60 63 65 67 68 69 70 73 74 75 75 74 73 73 71 69 66 65 63 57 50 39 28 22 25 34 45 58 67 74 76 69 65 63 66 69 65
49 51 53 57 60 62 63 64 66 67 69 70 71 71 71 72 73 73 73 72 69 68 65 63 59 57 53 44 36 31 22 10 15 27 37 45 53 54 61 65 61 61 59
49 52 54 55 57 59 61 64 65 66 67 69 70 71 71 72 72 73 75 73 72 69 65 62 58 55 49 45 41 34 25 15 5 6 15 24 33 41 48 54 56 56 56
Wind_Direction_850mb
21 14 357 342 338 337 331 324 313 301 291 283 285 287 287 285 285 282 279 278 275 275 274 273 273 272 270 269 266 265 263 263 261 268 270 272 268 276 263 267 254 254 255
13 8 6 1 354 344 339 335 328 318 310 302 292 282 281 285 285 283 281 281 280 277 275 273 272 271 270 269 266 266 266 264 262 263 272 273 266 262 275 254 245 258 249
5 357 353 352 351 350 346 339 334 328 322 312 303 298 291 282 279 278 278 278 277 278 279 276 274 271 268 268 268 266 265 264 264 267 264 259 267 268 264 249 247 247 252
358 353 350 347 343 340 338 335 333 329 324 321 313 307 304 298 286 277 275 277 278 280 280 278 276 274 272 269 264 267 264 261 263 261 259 263 262 260 247 250 243 243 252
348 345 342 338 335 333 330 327 326 324 321 319 316 313 309 301 299 294 284 276 274 275 274 275 278 277 277 275 263 266 263 263 260 261 262 260 259 255 249 252 243 247 252
339 337 334 330 329 327 324 323 321 318 317 316 313 311 308 306 307 299 293 284 274 274 274 273 275 277 275 273 275 268 269 264 266 262 259 256 264 260 260 259 237 256 232
337 334 332 330 328 326 323 320 318 315 313 312 311 310 307 306 308 307 301 288 279 270 268 270 275 275 275 273 273 269 269 265 266 268 267 259 260 262 260 253 248 244 243
333 330 328 325 324 324 324 322 318 314 311 309 306 306 305 306 305 304 302 298 286 277 270 268 267 269 270 273 274 272 266 264 262 258 264 262 261 262 256 261 258 243 234
331 327 326 324 323 322 320 320 320 318 314 311 308 304 302 301 303 302 300 296 293 287 277 268 265 267 270 269 270 267 267 264 261 255 258 256 254 251 253 251 231 228 226
326 326 325 325 323 321 320 319 316 315 312 311 307 305 303 300 298 299 299 297 294 293 289 278 270 264 265 266 266 264 262 259 258 256 254 255 259 250 247 241 243 235 233
327 325 324 322 320 319 318 317 316 316 312 311 308 306 305 303 302 299 298 295 294 291 288 287 281 271 265 267 264 261 261 260 257 257 260 250 248 245 250 241 236 233 239
331 331 329 327 326 322 319 318 317 317 314 312 310 306 305 306 303 301 300 300 299 293 287 283 280 276 265 263 264 262 260 258 254 250 245 248 236 245 241 237 239 232 231
335 333 333 332 333 331 328 325 324 325 322 319 317 314 310 307 305 303 300 301 300 297 291 287 282 274 267 263 260 260 259 255 251 246 240 241 241 244 238 237 229 223 222
346 346 346 344 342 340 337 336 333 333 331 327 321 316 314 311 306 303 302 303 302 301 297 291 284 277 268 262 264 260 255 253 252 249 244 242 239 232 231 232 224 220 219
354 353 353 352 353 351 349 347 340 338 328 319 313 312 310 309 306 303 301 301 299 297 298 295 290 281 275 268 261 258 253 250 245 243 240 238 235 229 225 218 220 217 216
357 357 357 356 355 354 352 349 352 342 330 326 319 313 309 307 306 304 301 297 292 290 289 283 278 278 277 272 268 262 252 248 246 243 241 240 238 230 221 217 217 216 218
356 354 353 354 353 354 354 354 349 353 356 354 345 334 327 311 309 301 292 295 295 290 284 278 271 269 267 270 266 257 258 256 251 246 242 241 237 232 224 218 217 216 213
353 350 349 350 351 353 353 354 354 354 353 355 358 353 343 335 326 316 307 296 301 300 296 288 272 267 267 265 264 261 256 256 253 248 242 240 236 231 223 219 218 216 215
355 351 348 347 350 351 352 354 354 355 355 355 356 357 356 353 347 342 333 322 322 317 308 304 286 275 272 268 266 264 259 255 255 250 244 239 233 227 221 219 218 214 211
359 358 354 352 350 350 351 353 352 353 354 357 0 2 357 355 1 1 359 355 346 336 327 310 300 289 281 276 269 265 258 250 245 244 242 236 227 222 216 212 208 204 206
354 355 353 352 352 353 353 353 350 350 352 355 358 1 356 3 5 6 5 4 2 357 348 338 325 298 282 280 272 265 259 249 244 239 231 226 220 211 208 203 203 204 198
352 353 352 350 348 349 351 351 352 353 354 354 353 356 360 4 5 4 5 5 5 5 5 357 346 336 319 283 263 267 266 255 245 238 231 226 218 214 210 208 204 197 194
350 351 350 349 348 347 348 350 351 353 353 354 355 356 357 358 359 -0 1 2 3 3 4 7 6 0 349 331 309 280 260 252 248 243 234 224 218 214 210 199 191 187 186
349 349 347 347 347 346 347 347 348 350 352 352 353 354 355 355 355 353 354 355 358 0 1 2 4 7 8 6 355 320 282 266 254 241 234 228 216 204 191 187 185 184 190
345 346 345 346 345 344 344 345 346 347 348 349 350 351 351 351 351 351 352 351 350 353 356 357 358 359 0 3 5 8 7 328 257 234 226 211 194 187 187 185 188 197 200
343 344 342 342 342 342 342 342 342 343 343 344 345 346 346 346 347 347 347 348 348 347 345 348 350 351 351 351 352 357 356 357 7 188 187 191 191 193 198 204 204 202 200